Location: Владивосток
(43.1151°N, 131.8856°E)
Time: 20:35:21
(UTC+10:00)

CUBEBUG 2 - Pass Details

Date: 10 July 2022
Orbit: 584 x 693 km, 97.7° (Epoch: 07 August)

Event Time Altitude Azimuth Distance (km) Brightness Sun altitude
Rises 04:20:52 0° 10° (N) 2,870 ? -12.2°
Reaches altitude 10° 04:23:02 10° 9° (N) 1,976 ? -12.0°
Maximum altitude 04:27:19 76° 285° (WNW) 648 ? -11.4°
Enters shadow 04:31:20 12° 200° (SSW) 1,871 ? -10.9°
